This demonstration page uses our WeatherBlox Daily Observations layout. Learn more.

Left ArrowRight Arrow

38.83388, -104.82136

Hourly Observations for March 9, 2018

Temp ( °F °C ) Dew Point ( °F °C ) Humidity (%) Winds ( mph kmh ) Pressure ( in mb ) Visibility ( mi km ) Precip ( " mm )
12:58 am 00:58 Clear 40 4.3 5 -15.2 23 23 Calm 29.77 1008 10 16 0.00 0.00
1:58 am 01:58 Clear 41 5 6 -14.3 23 23 Calm 29.77 1008 10 16 0.00 0.00
2:58 am 02:58 Clear 41 5.1 7 -13.9 24 24 Calm 29.71 1006 10 16 0.00 0.00
3:58 am 03:58 Clear 43 6.2 6 -14.4 21 21 Calm 29.74 1007 10 16 0.00 0.00
4:58 am 04:58 Clear 39 3.9 8 -13.1 28 28 WNW 5 7 29.80 1009 10 16 0.00 0.00
5:58 am 05:58 Clear 41 4.9 8 -13.1 26 26 WSW 3 6 29.50 999 10 16 0.00 0.00
6:58 am 06:58 Sunny 41 4.9 10 -12.2 28 28 Calm 29.54 1000 10 16 0.00 0.00
7:58 am 07:58 Sunny 44 6.4 10 -12 26 26 S 3 6 29.55 1001 10 16 0.00 0.00
8:58 am 08:58 Sunny 46 7.8 8 -13.4 21 21 SSE 6 9 29.55 1001 10 16 0.00 0.00
9:58 am 09:58 Sunny 48 8.8 9 -12.7 21 21 E 3 6 29.53 1000 10 16 0.00 0.00
10:58 am 10:58 Sunny 51 10.8 9 -12.9 18 18 SE 7 11 29.50 999 10 16 0.00 0.00
11:58 am 11:58 Mostly Sunny 54 12.3 7 -13.8 15 15 S 5 7 29.46 998 10 16 0.00 0.00
12:58 pm 12:58 Mostly Sunny 58 14.2 6 -14.5 12 12 E 3 6 29.43 997 10 16 0.00 0.00
1:58 pm 13:58 Partly Cloudy 60 15.3 4 -15.8 10 10 ENE 6 9 29.38 995 10 16 0.00 0.00
2:52 pm 14:52 Sunny 57 14 1 -17 10 10 NNE 18 30 29.38 995 10 16 0.00 0.00
2:58 pm 14:58 Sunny 57 13.8 2 -16.9 10 10 NNE 10 17 29.38 995 10 16 0.00 0.00
3:31 pm 15:31 Partly Cloudy 57 14 1 -17 10 10 N 16 26 29.37 995 10 16 0.00 0.00
3:44 pm 15:44 Partly Cloudy 57 14 1 -17 10 10 NNW 20 31 29.37 995 10 16 0.00 0.00
3:58 pm 15:58 Mostly Cloudy 56 13.5 1 -17.1 10 10 NNE 8 13 29.38 995 10 16 0.00 0.00
4:58 pm 16:58 Mostly Cloudy 53 11.7 6 -14.3 15 15 Calm 29.44 997 10 16 0.00 0.00
5:58 pm 17:58 Mostly Cloudy 50 9.9 8 -13.5 18 18 S 3 6 29.49 999 10 16 0.00 0.00
6:58 pm 18:58 Mostly Cloudy 47 8.2 10 -12.4 22 22 Calm 29.49 999 10 16 0.00 0.00
7:58 pm 19:58 Mostly Cloudy 45 7 10 -12.4 24 24 Calm 29.51 999 10 16 0.00 0.00
8:58 pm 20:58 Mostly Cloudy 47 8.3 9 -13 21 21 SSW 6 9 29.48 998 10 16 0.00 0.00
9:58 pm 21:58 Clear 45 7.1 1 -17.1 16 16 WNW 7 11 29.47 998 10 16 0.00 0.00
10:58 pm 22:58 Partly Cloudy 43 6 5 -14.9 21 21 WNW 5 7 29.46 998 10 16 0.00 0.00
11:58 pm 23:58 Mostly Cloudy 43 6.1 5 -14.8 21 21 WNW 7 11 29.43 997 10 16 0.00 0.00

Powered by AerisWeather